LiveATC.Net - Listen to live air traffic control over the Internet!


ICAO: CYYJ  IATA: YYJ   Airport: Victoria International Airport
City: Victoria   State/Province: British Columbia
Country: Canada   Continent: North America
CYYJ METAR Weather: CYYJ 251500Z 27013KT 30SM FEW020TCU FEW030 FEW070 FEW190 15/08 A2997 RMK TCU1SC1AC2AC1 TCU TR SC TR AC TR SLP152 DENSITY ALT 100FT
CYYJ Flight Activity (FlightAware)

CYYJ Gnd/Twr
Feed Status: DOWN
Last heard on: 2018-06-23 23:01:08 (1 days 16 hours 57 minutes ago)
CYYJ Gnd/Twr Audio Archives
FacilityFrequency
Victoria Ground121.900
Victoria Tower (Inner)119.700
Victoria Tower (Outer)119.100
Feed sponsored by: Victoria Flying Club

NOTICE

Unauthorized use prohibited. See LiveATC.net Terms of Service


Find LiveATC Audio Streams


Airport/ARTCC Code

Frequency Search
(e.g., 124.400, 128.75)
Site-wide search
 


Browse LiveATC Feeds
LiveATC Coverage Map
Top 50 LiveATC Feeds
Bad Weather Areas

LiveATC FAQ
Offer a LiveATC Feed
Contact LiveATC.net
Press Inquiries

LiveATC on iPhone
LiveATC on Android

Windows Phone
Windows 8/10

LiveATC Mobile
(Mobile browser)

ATC Audio Archives
Interesting Recordings

LiveATC Forums


Home Page
About LiveATC.net
Make a Donation
Terms of Use
Privacy Policy

Canadian Air Freqs

AIRMETs/SIGMETs

FAA Airport Status
Nat'l Airspace Status
Arrival Demand Charts


Server Software By:
Icecast.org
Liquidsoap